Regional Weather Roundup
Issued by NWS

Home | Current Version | Previous Version | Text Only | Print | Product List | Glossary On
Versions: 1 2 3 4 5 6 7 8 9 10 11 12 13 14 15 16 17 18 19 20 21 22 23 24 25 26 27 28 29 30 31 32 33 34 35 36 37 38 39 40 41 42 43 44 45 46 47 48 49 50
000
ASUS43 KDTX 240201
RWRMI
MICHIGAN HOURLY REGIONAL WEATHER ROUNDUP
NATIONAL WEATHER SERVICE DETROIT/PONTIAC MI
1000 PM EDT SUN APR 23 2017

NOTE: "FAIR" INDICATES FEW OR NO CLOUDS BELOW 12,000 FEET WITH NO
SIGNIFICANT WEATHER AND/OR OBSTRUCTION TO VISIBILITY.

MIZ047>049-052>055-059>063-066>070-074>076-081>083-240300-
SOUTHEAST LOWER MICHIGAN

CITY           SKY/WX    TMP DP  RH WIND       PRES   REMARKS
ADRIAN         CLEAR     55  34  45 SE6       30.07R
ALMA           CLEAR     47  40  74 NE9       30.10R
ANN ARBOR      CLEAR     49  42  77 CALM      30.06R
BAD AXE        CLEAR     39  35  85 CALM      30.12R
CARO           CLEAR     46  38  73 NE7       30.10R
DETROIT CITY   CLEAR     56  37  49 CALM      30.07R
DETROIT        PTCLDY    55  30  38 S6        30.08R
FLINT          CLEAR     50  38  63 VRB6      30.06R
GROSSE ILE     CLEAR     49  35  56 CALM      30.06R
HILLSDALE      CLEAR     50  36  57 CALM      30.06R
HOWELL         CLEAR     55  29  37 CALM      30.06R

CITY           SKY/WX    TMP DP  RH WIND       PRES   REMARKS
JACKSON        CLEAR     57  30  35 CALM      30.05S
LAMBERTVILLE   CLEAR     49  37  64 CALM      30.07R
LANSING        CLEAR     56  32  40 CALM      30.06R
LAPEER         FAIR      49  39  69 E5        30.09R
MASON          CLEAR     54  42  63 CALM      30.06R
MONROE         CLEAR     48  34  57 CALM      30.07R
MT. CLEMENS    PTCLDY    53  43  69 NE9       30.05R
PONTIAC        PTCLDY    53  34  48 CALM      30.05R
PORT HOPE        N/A     41  37  86 N12       30.11R
PORT HURON     CLEAR     41  36  81 N8        30.10S
TRI CITIES     PTCLDY    47  41  80 NE14      30.12R
MIDLAND        FAIR      46  36  68 E10       30.11R
TROY           CLEAR     57  31  37 CALM      30.07S
SAGINAW HB     CLEAR     46  37  71 NE13      30.10R
$$
MIZ043>046-050>051-056>058-064>065-071>073-077>080-240300-
SOUTHWEST LOWER MICHIGAN

CITY           SKY/WX    TMP DP  RH WIND       PRES   REMARKS
BATTLE CREEK   CLEAR     58  29  33 N5        30.07R
BENTON HARBOR  CLEAR     47  32  56 CALM      30.06S
BIG RAPIDS     CLEAR     52  38  58 CALM      30.08R
COLDWATER      CLEAR     54  30  39 CALM      30.04S
FREMONT        FAIR      53  33  47 W3        30.06R
HOLLAND        CLEAR     49  36  61 CALM      30.08R
GRAND RAPIDS   PTCLDY    56  35  45 W6        30.07R
IONIA          FAIR      58  35  40 W5        30.06R
KALAMAZOO      CLEAR     56  30  37 N7        30.06R
LUDINGTON      CLOUDY    42  38  86 CALM      30.07S
MARSHALL       CLEAR     53  33  45 CALM      30.05S
MOUNT PLEASANT CLEAR     47  36  65 E8        30.11R
MUSKEGON       PTCLDY    45  40  82 CALM      30.08R
SOUTH HAVEN    CLEAR     47  35  63 CALM      30.07R
$$
MIZ016>042-240300-
NORTHERN LOWER MICHIGAN

CITY           SKY/WX    TMP DP  RH WIND       PRES   REMARKS
ALPENA         MOCLDY    43  27  53 N10       30.16R
BEAVER ISLAND  CLOUDY    37  22  55 N6        30.16S WCI  32
BELLAIRE       PTCLDY    39  25  57 N3        30.14S
CADILLAC       PTCLDY    40  30  66 N3        30.10R
CHARLEVOIX     PTCLDY    38  27  64 N9        30.18S WCI  31
FRANKFORT      PTCLDY    40  27  59 NE8       30.12R WCI  35
GAYLORD        CLOUDY    43  28  55 NE8       30.12R
GRAYLING       MOCLDY    45  33  64 NE8       30.12R
HARBOR SPRINGS CLOUDY    39  24  53 N6        30.15S WCI  35
HOUGHTON LAKE  CLEAR     50  38  63 E8        30.10R
MANISTEE       CLOUDY    42  27  55 E14       30.09R
OSCODA         CLOUDY    44  36  73 N6        30.14R
PELLSTON       CLOUDY    40  22  48 NE10      30.16R WCI  33
ROGERS CITY    CLOUDY    39  25  58 NW7       30.17R WCI  34
TRAVERSE CITY  CLOUDY    40  28  62 N6        30.13R
$$
MIZ007>008-015-240300-
EASTERN UPPER MICHIGAN

CITY           SKY/WX    TMP DP  RH WIND       PRES   REMARKS
KINROSS        CLOUDY    31  24  75 N12       30.18R WCI  22
MACKINAC ISLAN CLOUDY    34  23  64 VRB9      30.17R WCI  26
NEWBERRY       MOCLDY    30  22  73 N5        30.19R WCI  25
S. S. MARIE    CLOUDY    34  25  69 NW9       30.17R WCI  27
MUNISING         N/A     33  24  69 N8        30.19R WCI  26
$$
MIZ004>006-011>014-085-240300-
CENTRAL UPPER MICHIGAN

CITY           SKY/WX    TMP DP  RH WIND       PRES   REMARKS
MANISTIQUE     CLOUDY    33  21  60 N8        30.18R WCI  26
ESCANABA       CLOUDY    35  21  56 VRB6      30.17R WCI  30
MENOMINEE      MOCLDY    38  27  64 E12       30.15R WCI  30
SAWYER-GWINN   CLOUDY    30  21  69 NE8       30.16S WCI  23
$$
MIZ001>003-009>011-084-240300-
WESTERN UPPER MICHIGAN

CITY           SKY/WX    TMP DP  RH WIND       PRES   REMARKS
IRON MOUNTAIN  PTCLDY    35  20  54 E8        30.13R WCI  29
HOUGHTON       CLOUDY    30  20  66 SE6       30.16S WCI  24
COPPER HARBOR    N/A     31  17  56 CALM      30.19R
IRONWOOD       PTCLDY    35  28  75 E8        30.11R WCI  29
$$

ABBREVIATIONS USED IN REMARKS
   TC - TEMPERATURE IN CELSIUS
  WCI - WIND CHILL INDEX
   HX - HEAT INDEX
  VSB - VISIBILITY





USA.gov is the U.S. government's official web portal to all federal, state and local government web resources and services.